TimeEDT,TemperatureF,Dew PointF,Humidity,Sea Level PressureIn,VisibilityMPH,Wind Direction,Wind SpeedMPH,Gust SpeedMPH,PrecipitationIn,Events,Conditions,WindDirDegrees,DateUTC
12:15 AM,35.6,35.6,100,29.73,0.2,WNW,16.1,21.9,0.02,Rain,Light Rain,300,2012-10-29 04:15:00
12:55 AM,35.6,35.6,100,29.72,0.2,WNW,17.3,26.5,0.02,Snow,Light Snow,300,2012-10-29 04:55:00
1:15 AM,33.8,33.8,100,29.71,0.2,WNW,17.3,25.3,0.04,Snow,Light Snow,300,2012-10-29 05:15:00
1:35 AM,33.8,33.8,100,29.70,0.2,WNW,17.3,25.3,0.06,Snow,Light Snow,300,2012-10-29 05:35:00
1:55 AM,33.8,33.8,100,29.70,0.2,WNW,16.1,23.0,0.02,Snow,Light Snow,300,2012-10-29 05:55:00
2:15 AM,33.8,33.8,100,29.69,0.2,WNW,15.0,-,0.03,Snow,Snow,300,2012-10-29 06:15:00
2:35 AM,33.8,33.8,100,29.69,0.2,WNW,18.4,23.0,0.05,Snow,Light Snow,300,2012-10-29 06:35:00
2:55 AM,33.8,33.8,100,29.68,0.2,WNW,19.6,28.8,N/A,Snow,Light Snow,300,2012-10-29 06:55:00
3:15 AM,33.8,33.8,100,29.67,0.2,WNW,18.4,28.8,0.02,Snow,Light Snow,300,2012-10-29 07:15:00
3:35 AM,33.8,33.8,100,29.66,0.2,WNW,21.9,28.8,0.03,Snow,Snow,300,2012-10-29 07:35:00
3:55 AM,33.8,33.8,100,29.65,0.2,WNW,17.3,29.9,0.01,Snow,Snow,300,2012-10-29 07:55:00
4:15 AM,33.8,33.8,100,29.65,0.2,WNW,17.3,24.2,0.02,Snow,Light Snow,300,2012-10-29 08:15:00
4:35 AM,33.8,33.8,100,29.65,0.2,WNW,15.0,23.0,0.04,Snow,Snow,300,2012-10-29 08:35:00
4:55 AM,33.8,33.8,100,29.66,0.2,WNW,18.4,24.2,N/A,Snow,Light Snow,300,2012-10-29 08:55:00
5:35 AM,32.0,32.0,100,29.65,0.2,WNW,16.1,24.2,0.02,Snow,Light Snow,290,2012-10-29 09:35:00
5:55 AM,32.0,32.0,100,29.64,0.2,WNW,17.3,-,N/A,Snow,Snow,290,2012-10-29 09:55:00
6:15 AM,32.0,32.0,100,29.64,0.2,WNW,19.6,24.2,N/A,Snow,Light Snow,300,2012-10-29 10:15:00
6:35 AM,30.2,30.2,100,29.63,0.2,WNW,17.3,26.5,0.01,Snow,Snow,300,2012-10-29 10:35:00
6:55 AM,30.2,30.2,100,29.63,0.2,WNW,18.4,23.0,N/A,Snow,Snow,300,2012-10-29 10:55:00
7:15 AM,30.2,30.2,100,29.63,0.2,NW,19.6,27.6,N/A,Snow,Light Snow,310,2012-10-29 11:15:00
7:55 AM,30.2,30.2,100,29.61,4.0,NW,19.6,28.8,N/A,,Overcast,310,2012-10-29 11:55:00
8:15 AM,30.2,30.2,100,29.62,10.0,NW,18.4,28.8,N/A,,Overcast,310,2012-10-29 12:15:00
8:35 AM,30.2,30.2,100,29.62,10.0,NW,21.9,26.5,N/A,,Overcast,310,2012-10-29 12:35:00
8:55 AM,30.2,30.2,100,29.61,10.0,WNW,21.9,26.5,N/A,,Overcast,290,2012-10-29 12:55:00
9:15 AM,30.2,30.2,100,29.60,10.0,WNW,19.6,26.5,N/A,,Overcast,300,2012-10-29 13:15:00
9:35 AM,30.2,30.2,100,29.60,10.0,NW,19.6,24.2,N/A,,Overcast,310,2012-10-29 13:35:00
9:55 AM,30.2,30.2,100,29.59,7.0,WNW,15.0,23.0,N/A,Snow,Light Snow,290,2012-10-29 13:55:00
10:15 AM,30.2,30.2,100,29.58,2.0,NW,19.6,31.1,N/A,Snow,Light Snow,310,2012-10-29 14:15:00
10:35 AM,30.2,30.2,100,29.57,0.8,NW,20.7,27.6,N/A,Snow,Light Snow,310,2012-10-29 14:35:00
10:55 AM,30.2,30.2,100,29.57,1.0,NW,23.0,29.9,N/A,Snow,Light Snow,310,2012-10-29 14:55:00
11:15 AM,30.2,30.2,100,29.56,1.5,NW,24.2,33.4,N/A,Snow,Light Snow,310,2012-10-29 15:15:00
11:35 AM,30.2,30.2,100,29.55,1.8,NW,20.7,33.4,N/A,Snow,Light Snow,310,2012-10-29 15:35:00
11:55 AM,30.2,30.2,100,29.53,1.5,WNW,27.6,33.4,N/A,Snow,Light Snow,300,2012-10-29 15:55:00
12:15 PM,30.2,30.2,100,29.53,3.0,NW,23.0,33.4,N/A,Snow,Light Snow,310,2012-10-29 16:15:00
12:35 PM,30.2,30.2,100,29.50,7.0,NW,24.2,35.7,N/A,Snow,Light Snow,310,2012-10-29 16:35:00
12:55 PM,30.2,30.2,100,29.48,10.0,WNW,25.3,44.9,N/A,,Overcast,300,2012-10-29 16:55:00
1:15 PM,30.2,30.2,100,29.47,10.0,WNW,28.8,40.3,N/A,,Overcast,300,2012-10-29 17:15:00
1:35 PM,30.2,30.2,100,29.45,7.0,WNW,28.8,41.4,N/A,,Overcast,300,2012-10-29 17:35:00
1:55 PM,32.0,30.2,93,29.43,7.0,NW,34.5,41.4,N/A,Snow,Light Snow,310,2012-10-29 17:55:00
2:55 PM,32.0,30.2,93,29.41,4.0,NW,26.5,36.8,N/A,Snow,Light Snow,310,2012-10-29 18:55:00
3:15 PM,32.0,30.2,93,29.40,3.0,NW,23.0,34.5,N/A,Snow,Light Snow,310,2012-10-29 19:15:00
3:35 PM,30.2,30.2,100,29.37,2.5,WNW,23.0,35.7,N/A,Snow,Light Snow,300,2012-10-29 19:35:00
3:55 PM,32.0,30.2,93,29.35,4.0,WNW,26.5,39.1,N/A,Snow,Light Snow,290,2012-10-29 19:55:00
4:15 PM,32.0,30.2,93,29.31,4.0,WNW,26.5,36.8,N/A,Snow,Light Snow,300,2012-10-29 20:15:00
4:35 PM,32.0,30.2,93,29.31,10.0,NW,28.8,39.1,N/A,,Overcast,310,2012-10-29 20:35:00
4:55 PM,32.0,30.2,93,29.31,10.0,WNW,26.5,46.0,N/A,,Overcast,300,2012-10-29 20:55:00
5:15 PM,32.0,30.2,93,29.30,10.0,WNW,33.4,50.6,N/A,Snow,Light Snow,290,2012-10-29 21:15:00
5:35 PM,30.2,30.2,100,29.29,7.0,WNW,27.6,42.6,N/A,Snow,Light Snow,290,2012-10-29 21:35:00
6:15 PM,30.2,30.2,100,29.25,1.2,WNW,28.8,46.0,N/A,Snow,Light Snow,300,2012-10-29 22:15:00
6:35 PM,30.2,30.2,100,29.22,0.5,WNW,32.2,47.2,N/A,Snow,Light Snow,290,2012-10-29 22:35:00
6:55 PM,30.2,30.2,100,29.22,0.5,WNW,28.8,39.1,N/A,Snow,Light Snow,290,2012-10-29 22:55:00
7:15 PM,30.2,30.2,100,29.19,0.8,WNW,29.9,44.9,N/A,Snow,Light Snow,300,2012-10-29 23:15:00
7:35 PM,30.2,30.2,100,29.17,1.8,WNW,34.5,43.7,N/A,Snow,Light Snow,290,2012-10-29 23:35:00
7:55 PM,30.2,30.2,100,29.16,2.0,WNW,26.5,52.9,N/A,Snow,Light Snow,290,2012-10-29 23:55:00
8:15 PM,30.2,30.2,100,29.15,1.0,WNW,27.6,54.1,N/A,Snow,Light Snow,300,2012-10-30 00:15:00
8:35 PM,30.2,30.2,100,29.15,0.5,WNW,31.1,46.0,N/A,Snow,Light Snow,290,2012-10-30 00:35:00
8:55 PM,30.2,30.2,100,29.14,0.5,WNW,29.9,42.6,N/A,Snow,Light Snow,290,2012-10-30 00:55:00
11:55 PM,28.4,28.4,100,29.04,0.5,West,35.7,49.5,N/A,Snow,Snow,280,2012-10-30 03:55:00